Location: Unspecified
(35.6961°N, 0.0000°E)
Time: 22:11:36
(UTC+00:00)

Vanguard 2 Rocket - Pass Details

Date: 26 May 2019
Orbit: 554 x 3326 km, 32.9° (Epoch: 19 June)

Event Time Altitude Azimuth Distance (km) Brightness Sun altitude
Rises 06:37:23 0° 258° (WSW) 7,245 10.9 20.0°
Reaches altitude 10° 06:42:33 10° 258° (WSW) 6,064 10.6 21.1°
Maximum altitude 07:00:38 78° 175° (S) 2,323 9.4 24.7°
Drops below altitude 10° 07:11:09 10° 91° (E) 3,755 11.8 26.8°
Sets 07:13:35 0° 90° (E) 4,451 11.7 27.3°
